TimePDT,TemperatureF,Dew PointF,Humidity,Sea Level PressureIn,VisibilityMPH,Wind Direction,Wind SpeedMPH,Gust SpeedMPH,PrecipitationIn,Events,Conditions,WindDirDegrees,DateUTC
12:51 AM,55.0,52.0,89,29.99,4.0,Calm,Calm,-,N/A,,Clear,0,2012-11-01 07:51:00
1:51 AM,54.0,51.1,90,29.99,4.0,Calm,Calm,-,N/A,,Clear,0,2012-11-01 08:51:00
2:51 AM,53.1,48.9,86,29.99,5.0,Calm,Calm,-,N/A,,Clear,0,2012-11-01 09:51:00
3:15 AM,53.6,48.2,82,30.00,6.0,Calm,Calm,-,N/A,,Scattered Clouds,0,2012-11-01 10:15:00
3:24 AM,53.6,50.0,88,30.00,6.0,Calm,Calm,-,N/A,,Mostly Cloudy,0,2012-11-01 10:24:00
3:51 AM,53.1,50.0,89,29.98,5.0,Calm,Calm,-,N/A,,Overcast,0,2012-11-01 10:51:00
4:15 AM,53.6,51.8,94,29.99,1.8,Calm,Calm,-,N/A,,Overcast,0,2012-11-01 11:15:00
4:37 AM,53.6,51.8,94,29.99,3.0,Calm,Calm,-,N/A,,Overcast,0,2012-11-01 11:37:00
4:51 AM,53.1,51.1,93,29.98,3.0,Calm,Calm,-,N/A,,Overcast,0,2012-11-01 11:51:00
5:05 AM,53.6,51.8,94,30.00,2.0,SSW,3.5,-,N/A,,Overcast,200,2012-11-01 12:05:00
5:31 AM,53.6,51.8,94,30.00,1.0,Calm,Calm,-,N/A,,Overcast,0,2012-11-01 12:31:00
5:45 AM,53.6,51.8,94,30.00,0.5,Calm,Calm,-,N/A,Fog,Fog,0,2012-11-01 12:45:00
5:51 AM,53.1,52.0,96,29.99,1.0,Calm,Calm,-,N/A,,Overcast,0,2012-11-01 12:51:00
6:51 AM,53.1,52.0,96,29.99,2.5,Calm,Calm,-,N/A,,Overcast,0,2012-11-01 13:51:00
7:05 AM,53.6,51.8,94,30.00,3.0,Calm,Calm,-,N/A,,Overcast,0,2012-11-01 14:05:00
7:25 AM,53.6,51.8,94,30.01,3.0,Calm,Calm,-,N/A,,Overcast,0,2012-11-01 14:25:00
7:51 AM,54.0,52.0,93,30.00,3.0,SSE,3.5,-,N/A,,Overcast,150,2012-11-01 14:51:00
8:31 AM,53.6,51.8,94,30.02,3.0,Variable,4.6,-,N/A,,Overcast,0,2012-11-01 15:31:00
8:51 AM,54.0,51.1,90,30.01,3.0,Calm,Calm,-,N/A,,Overcast,0,2012-11-01 15:51:00
9:51 AM,55.0,50.0,83,30.03,3.0,Calm,Calm,-,N/A,,Haze,0,2012-11-01 16:51:00
10:03 AM,55.4,50.0,82,30.04,3.0,NW,3.5,-,N/A,,Haze,310,2012-11-01 17:03:00
10:51 AM,55.9,50.0,80,30.03,3.0,NW,3.5,-,N/A,,Haze,310,2012-11-01 17:51:00
11:34 AM,59.0,48.2,67,30.02,4.0,Calm,Calm,-,N/A,,Haze,0,2012-11-01 18:34:00
11:51 AM,61.0,48.9,64,30.01,5.0,ESE,3.5,-,N/A,,Haze,120,2012-11-01 18:51:00
12:51 PM,64.9,48.0,54,29.98,5.0,Calm,Calm,-,N/A,,Haze,0,2012-11-01 19:51:00
1:51 PM,68.0,48.0,49,29.95,7.0,Calm,Calm,-,N/A,,Clear,0,2012-11-01 20:51:00
2:51 PM,71.1,46.9,42,29.94,7.0,ESE,3.5,-,N/A,,Clear,110,2012-11-01 21:51:00
3:51 PM,70.0,48.9,47,29.93,8.0,SE,6.9,-,N/A,,Partly Cloudy,140,2012-11-01 22:51:00
4:51 PM,68.0,48.9,50,29.93,9.0,SSE,6.9,-,N/A,,Scattered Clouds,150,2012-11-01 23:51:00
5:51 PM,63.0,48.9,60,29.94,10.0,South,6.9,-,N/A,,Scattered Clouds,170,2012-11-02 00:51:00
6:51 PM,61.0,50.0,67,29.94,10.0,SE,5.8,-,N/A,,Scattered Clouds,130,2012-11-02 01:51:00
7:51 PM,60.1,48.9,67,29.96,10.0,Calm,Calm,-,N/A,,Partly Cloudy,0,2012-11-02 02:51:00
8:51 PM,57.9,48.9,72,29.97,10.0,Calm,Calm,-,N/A,,Partly Cloudy,0,2012-11-02 03:51:00
9:51 PM,55.9,50.0,80,29.98,10.0,Calm,Calm,-,N/A,,Partly Cloudy,0,2012-11-02 04:51:00
10:51 PM,55.9,50.0,80,29.98,10.0,Calm,Calm,-,N/A,,Partly Cloudy,0,2012-11-02 05:51:00
11:51 PM,55.0,50.0,83,29.97,9.0,Calm,Calm,-,N/A,,Clear,0,2012-11-02 06:51:00